Weather History for HEAX - October, 2013

Change the Weather History Date:

Tuesday, October 15, 2013

  Actual Average Record
Temperature  
Mean Temperature 73 °F -  
Max Temperature 81 °F 75 °F 89 °F (1998)
Min Temperature 65 °F 60 °F 59 °F (2008)
Cooling Degree Days 8    
Growing Degree Days 23 (Base 50)    
Moisture  
Dew Point 65 °F    
Average Humidity 72    
Maximum Humidity 88    
Minimum Humidity 50    
Precipitation  
Precipitation 0.00 in 0.03 in - ()
Sea Level Pressure  
Sea Level Pressure 30.02 in    
Wind  
Wind Speed 7 mph ()    
Max Wind Speed 12 mph    
Max Gust Speed -    
Visibility 6.2 miles    
Events      
Averages and records for this station are not official NWS values.
T = Trace of Precipitation, MM = Missing Value Source: Averaged Metar Reports

Daily Weather History Graph

Daily Weather History Graph

Search for Another Location

Airport or City:

Trip Planner

Search our weather history database for the weather conditions in past years. The results will help you decide how hot, cold, wet, or windy it might be!

Date:

Astronomy

Oct. 15, 2013 Rise Set
Actual Time 6:02 AM EET 5:28 PM EET
Civil Twilight 5:38 AM EET 5:52 PM EET
Nautical Twilight 5:10 AM EET 6:21 PM EET
Astronomical Twilight 4:42 AM EET 6:49 PM EET
Moon 3:10 PM EET (10/15) 2:17 AM EET (10/15)
Length of Visible Light 12h 14m
Length of Day
11h 25m
Waxing Gibbous, 85% of the Moon is Illuminated
Oct 15
Waxing Gibbous
Oct 19
Full
Oct 27
Last Quarter
Nov 3
New
Nov 10
First Quarter

Hourly Weather History & Observations

Time (EET) Temp. Heat Index Dew Point Humidity Pressure Visibility Wind Dir Wind Speed Gust Speed Precip Events Conditions
12:00 AM 73.4 °F - 66.2 °F 78% 30.01 in - NW 11.5 mph - N/A   Clear
1:00 AM 73.4 °F - 66.2 °F 78% 30.01 in 6.2 mi NW 9.2 mph - N/A   Partly Cloudy
2:00 AM 72 °F - 66 °F 77% 30.00 in 6 mi NW 9.2 mph - -   Scattered Clouds
2:00 AM 71.6 °F - 66.2 °F 83% 30.01 in 6.2 mi NW 9.2 mph - N/A   Partly Cloudy
3:00 AM 71.6 °F - 66.2 °F 83% 30.01 in 6.2 mi NW 9.2 mph - N/A   Scattered Clouds
4:00 AM 69.8 °F - 66.2 °F 88% 30.01 in 6.2 mi NW 9.2 mph - N/A   Partly Cloudy
5:00 AM 69.8 °F - 62.6 °F 78% 30.01 in 6.2 mi North 6.9 mph - N/A   Scattered Clouds
6:00 AM 69.8 °F - 62.6 °F 78% 30.01 in 6.2 mi NNW 6.9 mph - N/A   Scattered Clouds
7:00 AM 73.4 °F - 64.4 °F 73% 30.01 in 6.2 mi North 4.6 mph - N/A   Scattered Clouds
8:00 AM 75 °F - 64 °F 61% 30.04 in 6 mi North 4.6 mph - -   Partly Cloudy
8:00 AM 75.2 °F - 64.4 °F 69% 30.04 in 6.2 mi North 4.6 mph - N/A   Scattered Clouds
9:00 AM 77.0 °F - 66.2 °F 69% 30.06 in 6.2 mi North 3.5 mph - N/A   Scattered Clouds
10:00 AM 78.8 °F - 62.6 °F 57% 30.06 in 6.2 mi NW 4.6 mph - N/A   Scattered Clouds
11:00 AM 78.8 °F - 64.4 °F 61% 30.04 in 6.2 mi NW 3.5 mph - N/A   Scattered Clouds
12:00 PM 80.6 °F 82.3 °F 64.4 °F 58% 30.04 in 6.2 mi North 5.8 mph - N/A   Partly Cloudy
1:00 PM 82.4 °F 83.9 °F 64.4 °F 54% 30.01 in 6.2 mi NNW 9.2 mph - N/A   Partly Cloudy
2:00 PM 80 °F - 65 °F 50% 30.02 in 6 mi North 9.2 mph - -   Scattered Clouds
2:00 PM 80.6 °F 82.3 °F 64.4 °F 58% 30.01 in 6.2 mi North 9.2 mph - N/A   Partly Cloudy
3:00 PM 78.8 °F - 64.4 °F 61% 30.01 in 6.2 mi North 9.2 mph - N/A   Partly Cloudy
4:00 PM 77.0 °F - 66.2 °F 69% 30.01 in 6.2 mi North 10.4 mph - N/A   Partly Cloudy
5:00 PM 75.2 °F - 66.2 °F 73% 30.01 in 6.2 mi North 10.4 mph - N/A   Partly Cloudy
6:00 PM 73.4 °F - 66.2 °F 78% 30.01 in 6.2 mi North 6.9 mph - N/A   Partly Cloudy
7:00 PM 73.4 °F - 66.2 °F 78% 30.01 in - North 9.2 mph - N/A   Clear
8:00 PM 73 °F - 66 °F 73% 30.03 in 6 mi NNE 6.9 mph - -  
8:00 PM 73.4 °F - 66.2 °F 78% 30.04 in - NNE 6.9 mph - N/A   Clear
9:00 PM 71.6 °F - 66.2 °F 83% 30.04 in - NNE 4.6 mph - N/A   Clear
10:00 PM 71.6 °F - 66.2 °F 83% 30.04 in - North 4.6 mph - N/A   Clear
11:00 PM 71.6 °F - 64.4 °F 78% 30.04 in - NNE 2.3 mph - N/A   Clear